Weather in Bolshiye Manadyshi

Russia / Republic of Mordovia     54°33′44″N   45°59′32″E
temp.,
°C
wind,
m/s
gust,
m/s
humid.,
%
clouds,
%
prec.,
mm/h
press.,
hPa
HPBL,
m
4 march, thu
thu400:00−7wsw6129571 0.1 1008305
03:00−4wsw7139485 0.4 1006590
06:00−2wsw71395100 0.7 1003727
09:00−2wsw91594100 1.1 1000841
12:000wsw101695100 0.9 9981045
15:000wsw111793100 1.1 9971067
18:00−1w81494100 0.4 999814
21:00−2w4895100 0.9 999300
5 march, fri
fri500:00−4w3496100 0.1 999129
03:00−5nnw2397100 0.8 100092
06:00−7n2397100 0.5 1001104
09:00−8nnw3493100 0.6 1004202
12:00−6nw239073 0.0 1006311
15:00−5wnw358975 0.0 1008514
18:00−10wsw339221 0.0 100922
21:00−10sw349531 0.0 101273
6 march, sat
sat600:00−8wsw499680 0.1 1012214
03:00−11w479788 0.2 1014132
06:00−15wnw349460 0.0 101563
09:00−14nw379330 0.0 1016217
12:00−11nw34850 0.0 1016335
15:00−10nw24840 0.0 1015423
18:00−15w12900 0.0 101520
21:00−17wsw12890 0.0 101620
7 march, sun
sun700:00−16wsw228732 0.0 101520
03:00−14sw349665 0.1 101484
06:00−14sw379699 0.3 1014192
09:00−12sw589597 0.3 1012308
12:00−8sw7118574 0.0 1009650
15:00−7ssw8148480 0.0 1006849
18:00−7ssw81694100 0.4 10031012
21:00−6sw101792100 1.1 9991004
8 march, mon
mon800:00−5wnw101494100 0.9 998854
03:00−11w6138278 1.1 1000294
06:00−13sw512810 0.0 1002207
09:00−10sw613770 0.0 1001356
12:00−6ssw6107433 0.0 998764
15:00−4s249567 1.1 996363
18:00−8w111787100 1.8 997966
21:00−8wnw111792100 3.5 1001998